Liberty, KS

2:49 PM CST on February 13, 2016 (GMT -0600)
Coffeyville Municipal

Weather History for KCFV - December, 2013

Change the Weather History Date:

Friday, December 20, 2013

  Actual Average Record
Temperature  
Mean Temperature 42 °F -  
Max Temperature 57 °F 42 °F 62 °F (2004)
Min Temperature 26 °F 22 °F 10 °F (1996)
Degree Days  
Heating Degree Days 24    
Moisture  
Dew Point 29 °F    
Average Humidity 82    
Maximum Humidity 94    
Minimum Humidity 66    
Precipitation  
Precipitation 0.00 in - - ()
Sea Level Pressure  
Sea Level Pressure 29.87 in    
Wind  
Wind Speed 12 mph (NNW)    
Max Wind Speed 23 mph    
Max Gust Speed 30 mph    
Visibility 8 miles    
Events Rain    
Averages and records for this station are not official NWS values.
T = Trace of Precipitation, MM = Missing Value Source: NWS Daily Summary

Daily Weather History Graph

Daily Weather History Graph

Search for Another Location

Airport or City:

Trip Planner

Search our weather history database for the weather conditions in past years. The results will help you decide how hot, cold, wet, or windy it might be!

Date:

Astronomy

Dec. 20, 2013 Rise Set
Actual Time 7:31 AM CST 5:08 PM CST
Civil Twilight 7:02 AM CST 5:37 PM CST
Nautical Twilight 6:29 AM CST 6:10 PM CST
Astronomical Twilight 5:58 AM CST 6:41 PM CST
Moon 8:26 PM CST (12/20) 9:29 AM CST (12/20)
Length of Visible Light 10h 35m
Length of Day
9h 36m
Waning Gibbous, 90% of the Moon is Illuminated
Dec 20
Waning Gibbous
Dec 25
Last Quarter
Jan 1
New
Jan 7
First Quarter
Jan 15
Full

Hourly Weather History & Observations

Time (CST) Temp. Windchill Dew Point Humidity Pressure Visibility Wind Dir Wind Speed Gust Speed Precip Events Conditions
12:52 AM 57.9 °F - 55.0 °F 90% 29.63 in 10.0 mi South 11.5 mph - N/A   Clear
1:52 AM 57.9 °F - 55.0 °F 90% 29.65 in 10.0 mi SSW 12.7 mph - N/A   Clear
2:45 AM 57.0 °F - 54.0 °F 89% 29.69 in 10.0 mi West 4.6 mph - N/A   Overcast
2:52 AM 55.9 °F - 54.0 °F 93% 29.68 in 10.0 mi West 3.5 mph - N/A   Overcast
3:06 AM 55.9 °F - 54.0 °F 93% 29.69 in 10.0 mi WSW 3.5 mph - N/A   Overcast
3:49 AM 55.4 °F - 53.6 °F 94% 29.72 in 10.0 mi WNW 12.7 mph 17.3 mph N/A   Overcast
3:52 AM 54.0 °F - 52.0 °F 93% 29.72 in 9.0 mi NW 19.6 mph 24.2 mph N/A   Overcast
4:03 AM 45.0 °F 36.4 °F 41.0 °F 86% 29.74 in 8.0 mi NW 23.0 mph 28.8 mph N/A   Overcast
4:30 AM 39.9 °F 30.2 °F 34.0 °F 79% 29.75 in 7.0 mi NNW 20.7 mph 29.9 mph N/A   Overcast
4:52 AM 37.9 °F 27.9 °F 33.1 °F 83% 29.79 in 5.0 mi NNW 19.6 mph 26.5 mph N/A   Haze
5:19 AM 34.0 °F 23.8 °F 32.0 °F 92% 29.81 in 3.0 mi NW 16.1 mph 25.3 mph N/A   Overcast
5:52 AM 33.1 °F 21.9 °F 30.9 °F 92% 29.84 in 3.0 mi NNW 18.4 mph - N/A   Overcast
6:52 AM 28.9 °F 16.9 °F 26.1 °F 89% 29.88 in 5.0 mi NNW 17.3 mph - N/A   Overcast
7:52 AM 27.0 °F 15.2 °F 25.0 °F 92% 29.94 in 6.0 mi NW 15.0 mph - N/A   Overcast
8:52 AM 27.0 °F 14.3 °F 23.0 °F 85% 29.96 in 8.0 mi NNW 17.3 mph - N/A   Overcast
9:47 AM 26.6 °F 13.4 °F 21.2 °F 80% 29.95 in 10.0 mi NW 18.4 mph - N/A   Overcast
9:52 AM 27.0 °F 14.3 °F 21.9 °F 81% 29.96 in 9.0 mi NW 17.3 mph - N/A   Overcast
10:52 AM 27.0 °F 16.7 °F 19.9 °F 75% 30.00 in 10.0 mi NNW 11.5 mph - N/A   Overcast
11:08 AM 27.0 °F 16.7 °F 19.9 °F 75% 29.99 in 10.0 mi NNW 11.5 mph - N/A   Overcast
11:52 AM 27.0 °F 18.0 °F 19.9 °F 75% 29.99 in 10.0 mi NNW 9.2 mph - N/A   Overcast
12:52 PM 28.0 °F 17.5 °F 19.9 °F 72% 29.96 in 10.0 mi NW 12.7 mph - N/A   Overcast
1:52 PM 28.9 °F 20.4 °F 19.9 °F 69% 29.92 in 10.0 mi NNW 9.2 mph - N/A   Overcast
2:52 PM 28.9 °F 21.1 °F 19.0 °F 67% 29.94 in 9.0 mi WNW 8.1 mph - N/A   Overcast
3:52 PM 28.0 °F 20.0 °F 19.0 °F 69% 29.96 in 10.0 mi NNW 8.1 mph - N/A   Overcast
4:52 PM 28.0 °F 20.8 °F 18.0 °F 66% 29.97 in 10.0 mi NNW 6.9 mph - N/A   Overcast
5:52 PM 28.0 °F 20.8 °F 18.0 °F 66% 29.97 in 10.0 mi NNW 6.9 mph - N/A   Overcast
6:52 PM 27.0 °F 20.5 °F 18.0 °F 69% 29.95 in 10.0 mi North 5.8 mph - N/A   Overcast
7:52 PM 27.0 °F 21.6 °F 19.0 °F 72% 29.96 in 10.0 mi North 4.6 mph - N/A   Overcast
8:52 PM 27.0 °F 19.5 °F 19.0 °F 72% 29.95 in 10.0 mi North 6.9 mph - N/A   Overcast
9:52 PM 27.0 °F 18.7 °F 21.0 °F 78% 29.94 in 8.0 mi NNW 8.1 mph - 0.00 in   Overcast
10:07 PM 27.0 °F 18.7 °F 21.9 °F 81% 29.90 in 5.0 mi North 8.1 mph - 0.00 in   Overcast
10:15 PM 27.0 °F 18.7 °F 21.9 °F 81% 29.89 in 5.0 mi North 8.1 mph - 0.00 in Rain Light Freezing Rain
10:35 PM 27.0 °F 19.5 °F 21.9 °F 81% 29.88 in 7.0 mi ENE 6.9 mph - 0.00 in   Overcast
10:52 PM 27.0 °F 19.5 °F 23.0 °F 85% 29.90 in 4.0 mi ENE 6.9 mph - N/A Rain Light Freezing Rain
11:12 PM 27.0 °F 15.2 °F 23.0 °F 85% 29.86 in 5.0 mi NNW 15.0 mph - N/A Rain Light Freezing Rain
11:25 PM 27.0 °F 15.2 °F 24.1 °F 89% 29.85 in 5.0 mi North 15.0 mph - N/A Rain Light Freezing Rain
11:52 PM 27.0 °F 19.5 °F 24.1 °F 89% 29.88 in 4.0 mi North 6.9 mph - N/A Rain Light Freezing Rain